FW6122 Weather Reports


Display with metric or nautical units.
time (UTC)temp
F
wind
direction
speed
MPH
gust
MPH
rain 1hr
in
rain 24hr
in
rain mn
in
humidity
%
barometer
mb
20260507213040 69 60 7.0 12.0 0.00 0.00 0.00 23 1015.9
20260507211537 70 13 4.0 9.0 0.00 0.00 0.00 24 1016.0
20260507210134 69 360 1.0 9.0 0.00 0.00 0.00 25 1016.2
20260507204534 69 142 2.0 9.0 0.00 0.00 0.00 27 1016.4
20260507203036 68 15 4.0 13.0 0.00 0.00 0.00 27 1016.7
20260507201525 69 159 3.0 5.0 0.00 0.00 0.00 27 1016.7
20260507200046 67 38 5.0 11.0 0.00 0.00 0.00 28 1016.9
20260507194522 69 62 1.0 11.0 0.00 0.00 0.00 28 1017.1
20260507193037 69 97 1.0 9.0 0.00 0.00 0.00 30 1017.1
20260507191517 67 105 5.0 15.0 0.00 0.00 0.00 28 1017.4
20260507190012 67 9 2.0 8.0 0.00 0.00 0.00 30 1017.6
20260507184513 67 17 3.0 10.0 0.00 0.00 0.00 30 1017.7
20260507183012 67 17 4.0 11.0 0.00 0.00 0.00 26 1017.9
20260507181506 66 323 2.0 12.0 0.00 0.00 0.00 29 1017.9
20260507180005 65 133 1.0 8.0 0.00 0.00 0.00 33 1018.0
20260507174505 65 340 4.0 11.0 0.00 0.00 0.00 32 1018.1
20260507173007 65 115 5.0 12.0 0.00 0.00 0.00 31 1018.2
20260507171605 65 291 1.0 10.0 0.00 0.00 0.00 34 1018.1
20260507170057 64 288 2.0 12.0 0.00 0.00 0.00 33 1018.2
20260507164601 64 5 3.0 8.0 0.00 0.00 0.00 34 1018.3
20260507163054 63 9 1.0 8.0 0.00 0.00 0.00 35 1018.5
20260507161602 62 340 3.0 11.0 0.00 0.00 0.00 35 1018.4
20260507160052 62 338 2.0 11.0 0.00 0.00 0.00 37 1018.4
20260507154552 62 119 0.0 5.0 0.00 0.00 0.00 38 1018.4
20260507153108 61 360 3.0 6.0 0.00 0.00 0.00 36 1018.3
20260507151548 60 5 2.0 6.0 0.00 0.00 0.00 39 1018.3
20260507150049 58 71 1.0 4.0 0.00 0.00 0.00 43 1018.3
20260507144539 56 300 0.0 5.0 0.00 0.00 0.00 46 1018.4
20260507143032 54 67 0.0 0.0 0.00 0.00 0.00 57 1018.3
20260507141528 50 69 0.0 0.0 0.00 0.00 0.00 63 1018.4
20260507140023 48 69 0.0 0.0 0.00 0.00 0.00 63 1018.4
20260507134522 47 69 0.0 0.0 0.00 0.00 0.00 61 1018.2
20260507133021 46 69 0.0 0.0 0.00 0.00 0.00 62 1018.1
20260507131525 46 69 0.0 0.0 0.00 0.00 0.00 62 1018.1
20260507130018 46 69 0.0 0.0 0.00 0.00 0.00 61 1018.1
20260507124517 45 69 0.0 0.0 0.00 0.00 0.00 62 1018.0
20260507123016 45 69 0.0 0.0 0.00 0.00 0.00 63 1017.9
20260507121515 46 69 0.0 0.0 0.00 0.00 0.00 64 1018.1
20260507120014 46 69 0.0 0.0 0.00 0.00 0.00 62 1018.2
20260507114514 46 69 0.0 0.0 0.00 0.00 0.00 60 1018.1
20260507113013 46 69 0.0 0.0 0.00 0.00 0.00 61 1018.1
20260507111512 46 69 0.0 1.0 0.00 0.00 0.00 62 1018.1
20260507110009 46 69 0.0 3.0 0.00 0.00 0.00 60 1018.1
20260507104509 47 68 0.0 2.0 0.00 0.00 0.00 59 1018.2
20260507103007 46 284 0.0 0.0 0.00 0.00 0.00 62 1018.2
20260507101507 47 284 0.0 2.0 0.00 0.00 0.00 61 1018.3
20260507100004 47 284 0.0 2.0 0.00 0.00 0.00 61 1018.5
20260507094601 46 317 0.0 4.0 0.00 0.00 0.00 62 1018.5
20260507093101 45 311 1.0 4.0 0.00 0.00 0.00 66 1018.6
20260507091557 44 360 0.0 0.0 0.00 0.00 0.00 70 1018.7
20260507090053 44 360 0.0 0.0 0.00 0.00 0.00 69 1018.9
20260507084552 45 360 0.0 0.0 0.00 0.00 0.00 68 1019.0
20260507083105 45 360 0.0 0.0 0.00 0.00 0.00 68 1019.1
20260507081557 45 360 0.0 2.0 0.00 0.00 0.00 68 1019.2
20260507080045 45 360 0.0 2.0 0.00 0.00 0.00 68 1019.4
20260507074547 45 360 0.0 0.0 0.00 0.00 0.00 69 1019.4
20260507073053 45 360 0.0 0.0 0.00 0.00 0.00 68 1019.4
20260507071541 45 360 0.0 2.0 0.00 0.00 0.00 69 1019.5
20260507070041 45 360 0.0 2.0 0.00 0.00 0.00 70 1019.6
20260507064541 45 360 0.0 2.0 0.00 0.00 0.00 72 1019.6
20260507063043 45 360 0.0 2.0 0.00 0.00 0.00 73 1019.7
20260507061537 44 360 0.0 2.0 0.00 0.00 0.00 76 1019.8
20260507060042 44 360 0.0 1.0 0.00 0.00 0.00 78 1020.0
20260507054541 44 360 0.0 0.0 0.00 0.00 0.00 80 1020.1
20260507053037 44 360 0.0 0.0 0.00 0.00 0.00 81 1020.0
20260507051536 45 360 0.0 0.0 0.00 0.00 0.00 80 1019.8
20260507050039 45 360 0.0 0.0 0.00 0.00 0.00 80 1019.8
20260507044539 45 360 0.0 0.0 0.00 0.00 0.00 80 1019.8
20260507043034 46 360 0.0 0.0 0.00 0.00 0.00 81 1019.8
20260507041542 46 360 0.0 0.0 0.00 0.00 0.00 81 1019.9
20260507040034 47 360 0.0 0.0 0.00 0.00 0.00 80 1020.0
20260507034533 47 360 0.0 0.0 0.00 0.00 0.00 81 1019.8
20260507033035 48 360 0.0 0.0 0.00 0.00 0.00 83 1019.6
20260507031532 49 360 0.0 0.0 0.00 0.00 0.00 81 1019.5
20260507030031 50 360 0.0 0.0 0.00 0.00 0.00 79 1019.4
20260507024530 51 360 0.0 0.0 0.00 0.00 0.00 76 1019.4
20260507023029 53 360 0.0 0.0 0.00 0.00 0.00 70 1019.3
20260507021528 54 360 0.0 1.0 0.00 0.00 0.00 66 1019.5
20260507020028 55 18 0.0 0.0 0.00 0.00 0.00 57 1019.6
20260507014538 56 360 0.0 2.0 0.00 0.00 0.00 50 1019.5
20260507013027 57 360 1.0 4.0 0.00 0.00 0.00 44 1019.5
20260507011528 57 5 1.0 4.0 0.00 0.00 0.00 45 1019.6
20260507010026 57 34 1.0 5.0 0.00 0.00 0.00 44 1019.6
20260507004533 57 51 2.0 6.0 0.00 0.00 0.00 43 1019.6
20260507003030 58 355 1.0 6.0 0.00 0.00 0.00 41 1019.6
20260507001526 58 27 0.0 10.0 0.00 0.00 0.00 41 1019.6
20260507000026 59 340 1.0 5.0 0.00 0.00 0.00 42 1019.6
20260506234533 59 69 2.0 8.0 0.00 0.00 0.00 42 1019.7
20260506233022 58 340 3.0 11.0 0.00 0.00 0.00 40 1019.7
20260506231531 59 36 2.0 9.0 0.00 0.00 0.00 40 1019.8
20260506230018 58 281 2.0 12.0 0.00 0.00 0.00 41 1020.0
20260506224518 59 313 3.0 11.0 0.00 0.00 0.00 41 1020.1
20260506223020 58 51 5.0 11.0 0.00 0.00 0.00 41 1020.4
20260506221514 59 355 6.0 14.0 0.00 0.00 0.00 41 1020.7
20260506220013 58 56 5.0 11.0 0.00 0.00 0.00 45 1021.0
20260506214512 59 36 4.0 9.0 0.00 0.00 0.00 41 1021.2